Time,TemperatureF,DewpointF,PressureIn,WindDirection,WindDirectionDegrees,WindSpeedMPH,WindSpeedGustMPH,Humidity,HourlyPrecipIn,Conditions,Clouds,dailyrainin,SoftwareType,DateUTC
2013-03-20 00:00:00,36.8,21.7,29.85,NNW,336,6.0,6.0,54,0.00,,,0.22,Wunderground v.1.15,2013-03-20 04:00:00,
2013-03-20 00:01:00,36.8,21.0,29.85,NW,323,4.0,-999.0,54,-99.99,,,0.00,weatherlink.com 1.10,2013-03-20 04:01:00,
2013-03-20 00:06:00,36.7,21.6,29.86,WNW,295,6.0,12.0,54,0.00,,,0.00,Wunderground v.1.15,2013-03-20 04:06:00,
2013-03-20 00:11:00,36.7,21.6,29.85,West,278,7.0,8.0,54,0.00,,,0.00,Wunderground v.1.15,2013-03-20 04:11:00,
2013-03-20 00:16:00,36.6,22.0,29.86,WNW,300,5.0,-999.0,55,-99.99,,,0.00,weatherlink.com 1.10,2013-03-20 04:16:00,
2013-03-20 00:31:00,36.2,21.6,29.85,NW,305,7.0,9.0,55,0.00,,,0.00,Wunderground v.1.15,2013-03-20 04:31:00,
2013-03-20 00:41:00,35.9,22.1,29.86,WNW,303,7.0,10.0,57,0.00,,,0.00,Wunderground v.1.15,2013-03-20 04:41:00,
2013-03-20 00:47:00,36.0,22.0,29.86,NW,313,6.0,-999.0,56,-99.99,,,0.00,weatherlink.com 1.10,2013-03-20 04:47:00,
2013-03-20 01:01:00,36.0,22.0,29.86,NW,314,7.0,-999.0,56,-99.99,,,0.00,weatherlink.com 1.10,2013-03-20 05:01:00,
2013-03-20 01:10:00,35.9,21.7,29.87,NW,311,8.0,10.0,56,0.00,,,0.00,Wunderground v.1.15,2013-03-20 05:10:00,
2013-03-20 01:16:00,35.7,21.9,29.87,NW,306,6.0,6.0,57,0.00,,,0.00,Wunderground v.1.15,2013-03-20 05:16:00,
2013-03-20 01:30:00,35.2,21.5,29.88,WNW,294,8.0,16.0,57,0.00,,,0.00,Wunderground v.1.15,2013-03-20 05:30:00,
2013-03-20 01:35:00,35.3,21.6,29.88,NNW,328,8.0,16.0,57,0.00,,,0.00,Wunderground v.1.15,2013-03-20 05:35:00,
2013-03-20 01:47:00,35.0,21.0,29.89,NNW,330,13.0,-999.0,58,-99.99,,,0.00,weatherlink.com 1.10,2013-03-20 05:47:00,
2013-03-20 02:02:00,34.4,21.0,29.89,NNW,340,4.0,-999.0,59,-99.99,,,0.00,weatherlink.com 1.10,2013-03-20 06:02:00,
2013-03-20 02:15:00,34.2,22.1,29.90,WNW,300,7.0,7.0,61,0.00,,,0.00,Wunderground v.1.15,2013-03-20 06:15:00,
2013-03-20 02:21:00,34.2,22.1,29.90,NW,304,7.0,7.0,61,0.00,,,0.00,Wunderground v.1.15,2013-03-20 06:21:00,
2013-03-20 02:30:00,33.9,21.9,29.90,NW,310,6.0,6.0,61,0.00,,,0.00,Wunderground v.1.15,2013-03-20 06:30:00,
2013-03-20 02:35:00,33.8,21.8,29.90,West,276,6.0,6.0,61,0.00,,,0.00,Wunderground v.1.15,2013-03-20 06:35:00,
2013-03-20 02:46:00,33.5,22.0,29.91,WNW,290,4.0,-999.0,62,-99.99,,,0.00,weatherlink.com 1.10,2013-03-20 06:46:00,
2013-03-20 02:55:00,33.2,21.6,29.90,WNW,301,2.0,3.0,62,0.00,,,0.00,Wunderground v.1.15,2013-03-20 06:55:00,
2013-03-20 03:02:00,33.1,21.0,29.91,WNW,300,2.0,-999.0,62,-99.99,,,0.00,weatherlink.com 1.10,2013-03-20 07:02:00,
2013-03-20 03:16:00,32.7,21.0,29.90,WNW,301,0.0,-999.0,63,-99.99,,,0.00,weatherlink.com 1.10,2013-03-20 07:16:00,
2013-03-20 03:25:00,32.6,21.4,29.90,WNW,300,0.0,0.0,63,0.00,,,0.00,Wunderground v.1.15,2013-03-20 07:25:00,
2013-03-20 03:30:00,32.5,21.3,29.90,WNW,301,0.0,0.0,63,0.00,,,0.00,Wunderground v.1.15,2013-03-20 07:30:00,
2013-03-20 03:46:00,32.1,21.0,29.90,WNW,301,0.0,-999.0,63,-99.99,,,0.00,weatherlink.com 1.10,2013-03-20 07:46:00,
2013-03-20 03:55:00,32.1,20.9,29.91,WNW,286,1.0,1.0,63,0.00,,,0.00,Wunderground v.1.15,2013-03-20 07:55:00,
2013-03-20 04:02:00,32.1,20.0,29.91,WNW,286,2.0,-999.0,62,-99.99,,,0.00,weatherlink.com 1.10,2013-03-20 08:02:00,
2013-03-20 04:11:00,32.1,20.2,29.90,WNW,286,1.0,1.0,61,0.00,,,0.00,Wunderground v.1.15,2013-03-20 08:11:00,
2013-03-20 04:16:00,32.1,19.0,29.90,WNW,286,2.0,-999.0,60,-99.99,,,0.00,weatherlink.com 1.10,2013-03-20 08:16:00,
2013-03-20 04:25:00,32.0,19.3,29.90,WNW,286,0.0,0.0,59,0.00,,,0.00,Wunderground v.1.15,2013-03-20 08:25:00,
2013-03-20 04:31:00,31.9,19.2,29.90,WNW,286,1.0,2.0,59,0.00,,,0.00,Wunderground v.1.15,2013-03-20 08:31:00,
2013-03-20 04:40:00,32.0,18.9,29.90,West,271,2.0,2.0,58,0.00,,,0.00,Wunderground v.1.15,2013-03-20 08:40:00,
2013-03-20 04:46:00,31.9,18.8,29.90,West,277,1.0,5.0,58,0.00,,,0.00,Wunderground v.1.15,2013-03-20 08:46:00,
2013-03-20 05:01:00,31.7,18.6,29.90,West,271,2.0,2.0,58,0.00,,,0.00,Wunderground v.1.15,2013-03-20 09:01:00,
2013-03-20 05:10:00,31.5,18.0,29.90,West,271,1.0,2.0,57,0.00,,,0.00,Wunderground v.1.15,2013-03-20 09:10:00,
2013-03-20 05:16:00,31.4,18.3,29.90,West,273,1.0,2.0,58,0.00,,,0.00,Wunderground v.1.15,2013-03-20 09:16:00,
2013-03-20 05:25:00,31.0,18.7,29.90,WNW,294,1.0,2.0,60,0.00,,,0.00,Wunderground v.1.15,2013-03-20 09:25:00,
2013-03-20 05:31:00,30.8,18.5,29.90,WNW,294,1.0,3.0,60,0.00,,,0.00,Wunderground v.1.15,2013-03-20 09:31:00,
2013-03-20 05:40:00,30.6,18.7,29.90,WNW,294,0.0,3.0,61,0.00,,,0.00,Wunderground v.1.15,2013-03-20 09:40:00,
2013-03-20 05:46:00,30.5,18.6,29.90,WNW,294,0.0,0.0,61,0.00,,,0.00,Wunderground v.1.15,2013-03-20 09:46:00,
2013-03-20 05:55:00,30.6,18.0,29.90,WNW,294,0.0,1.0,59,0.00,,,0.00,Wunderground v.1.15,2013-03-20 09:55:00,
2013-03-20 06:01:00,30.8,17.7,29.90,WNW,294,0.0,0.0,58,0.00,,,0.00,Wunderground v.1.15,2013-03-20 10:01:00,
2013-03-20 06:10:00,30.6,18.0,29.90,WNW,294,0.0,0.0,59,0.00,,,0.00,Wunderground v.1.15,2013-03-20 10:10:00,
2013-03-20 06:16:00,30.4,17.0,29.90,WNW,294,0.0,-999.0,59,-99.99,,,0.00,weatherlink.com 1.10,2013-03-20 10:16:00,
2013-03-20 06:25:00,29.9,17.3,29.90,WNW,294,0.0,0.0,59,0.00,,,0.00,Wunderground v.1.15,2013-03-20 10:25:00,
2013-03-20 06:31:00,29.5,17.0,29.91,WNW,294,0.0,-999.0,61,-99.99,,,0.00,weatherlink.com 1.10,2013-03-20 10:31:00,
2013-03-20 06:40:00,29.8,18.0,29.90,WNW,294,1.0,2.0,61,0.00,,,0.00,Wunderground v.1.15,2013-03-20 10:40:00,
2013-03-20 06:46:00,29.9,18.1,29.91,WNW,294,1.0,1.0,61,0.00,,,0.00,Wunderground v.1.15,2013-03-20 10:46:00,
2013-03-20 07:00:00,29.7,18.6,29.91,West,264,1.0,3.0,63,0.00,,,0.00,Wunderground v.1.15,2013-03-20 11:00:00,
2013-03-20 07:06:00,30.0,18.5,29.91,West,261,2.0,3.0,62,0.00,,,0.00,Wunderground v.1.15,2013-03-20 11:06:00,
2013-03-20 07:15:00,30.5,18.6,29.91,WSW,257,4.0,4.0,61,0.00,,,0.00,Wunderground v.1.15,2013-03-20 11:15:00,
2013-03-20 07:20:00,30.7,18.8,29.91,WSW,258,4.0,4.0,61,0.00,,,0.00,Wunderground v.1.15,2013-03-20 11:20:00,
2013-03-20 07:30:00,30.9,18.6,29.91,WSW,244,4.0,5.0,60,0.00,,,0.00,Wunderground v.1.15,2013-03-20 11:30:00,
2013-03-20 07:40:00,31.1,18.8,29.92,WSW,254,4.0,4.0,60,0.00,,,0.00,Wunderground v.1.15,2013-03-20 11:40:00,
2013-03-20 07:45:00,31.3,18.6,29.92,WSW,251,4.0,4.0,59,0.00,,,0.00,Wunderground v.1.15,2013-03-20 11:45:00,
2013-03-20 07:56:00,31.7,19.0,29.92,West,259,4.0,5.0,59,0.00,,,0.00,Wunderground v.1.15,2013-03-20 11:56:00,
2013-03-20 08:11:00,32.1,19.0,29.92,SW,235,4.0,6.0,58,0.00,,,0.00,Wunderground v.1.15,2013-03-20 12:11:00,
2013-03-20 08:16:00,32.4,19.0,29.92,WSW,246,3.0,-999.0,58,-99.99,,,0.00,weatherlink.com 1.10,2013-03-20 12:16:00,
2013-03-20 08:26:00,32.7,19.5,29.92,SW,221,4.0,4.0,58,0.00,,,0.00,Wunderground v.1.15,2013-03-20 12:26:00,
2013-03-20 08:31:00,33.0,20.0,29.92,WSW,238,3.0,-999.0,58,-99.99,,,0.00,weatherlink.com 1.10,2013-03-20 12:31:00,
2013-03-20 08:40:00,33.5,19.5,29.92,WSW,257,5.0,8.0,56,0.00,,,0.00,Wunderground v.1.15,2013-03-20 12:40:00,
2013-03-20 08:46:00,33.7,19.0,29.92,SW,236,7.0,-999.0,55,-99.99,,,0.00,weatherlink.com 1.10,2013-03-20 12:46:00,
2013-03-20 08:55:00,34.1,19.2,29.91,West,277,7.0,7.0,54,0.00,,,0.00,Wunderground v.1.15,2013-03-20 12:55:00,
2013-03-20 09:01:00,34.3,18.9,29.91,WSW,248,8.0,8.0,53,0.00,,,0.00,Wunderground v.1.15,2013-03-20 13:01:00,
2013-03-20 09:10:00,34.6,19.2,29.91,WNW,288,9.0,10.0,53,0.00,,,0.00,Wunderground v.1.15,2013-03-20 13:10:00,
2013-03-20 09:16:00,34.8,18.0,29.91,West,276,7.0,-999.0,51,-99.99,,,0.00,weatherlink.com 1.10,2013-03-20 13:16:00,
2013-03-20 09:30:00,35.4,18.1,29.91,NW,317,10.0,10.0,49,0.00,,,0.00,Wunderground v.1.15,2013-03-20 13:30:00,
2013-03-20 09:36:00,35.4,18.1,29.91,WNW,296,11.0,11.0,49,0.00,,,0.00,Wunderground v.1.15,2013-03-20 13:36:00,
2013-03-20 09:45:00,35.7,18.4,29.91,WNW,300,11.0,11.0,49,0.00,,,0.00,Wunderground v.1.15,2013-03-20 13:45:00,
2013-03-20 09:51:00,36.1,19.2,29.92,WNW,296,11.0,11.0,50,0.00,,,0.00,Wunderground v.1.15,2013-03-20 13:51:00,
2013-03-20 10:00:00,36.1,18.3,29.92,WSW,258,10.0,10.0,48,0.00,,,0.00,Wunderground v.1.15,2013-03-20 14:00:00,
2013-03-20 10:06:00,36.3,18.5,29.91,West,267,11.0,11.0,48,0.00,,,0.00,Wunderground v.1.15,2013-03-20 14:06:00,
2013-03-20 10:16:00,36.7,17.8,29.91,West,277,12.0,13.0,46,0.00,,,0.00,Wunderground v.1.15,2013-03-20 14:16:00,
2013-03-20 10:30:00,37.8,18.3,29.91,NW,309,11.0,15.0,45,0.00,,,0.00,Wunderground v.1.15,2013-03-20 14:30:00,
2013-03-20 10:36:00,38.1,18.1,29.91,WNW,282,11.0,15.0,44,0.00,,,0.00,Wunderground v.1.15,2013-03-20 14:36:00,
2013-03-20 10:50:00,38.4,17.8,29.91,West,275,11.0,11.0,43,0.00,,,0.00,Wunderground v.1.15,2013-03-20 14:50:00,
2013-03-20 11:02:00,38.8,18.0,29.91,WSW,244,15.0,-999.0,43,-99.99,,,0.00,weatherlink.com 1.10,2013-03-20 15:02:00,
2013-03-20 11:11:00,38.9,17.2,29.91,West,271,11.0,12.0,41,0.00,,,0.00,Wunderground v.1.15,2013-03-20 15:11:00,
2013-03-20 11:17:00,38.9,18.0,29.91,WSW,251,14.0,-999.0,43,-99.99,,,0.00,weatherlink.com 1.10,2013-03-20 15:17:00,
2013-03-20 11:31:00,39.5,18.0,29.90,West,280,14.0,-999.0,42,-99.99,,,0.00,weatherlink.com 1.10,2013-03-20 15:31:00,
2013-03-20 11:41:00,39.3,18.6,29.90,West,265,12.0,12.0,43,0.00,,,0.00,Wunderground v.1.15,2013-03-20 15:41:00,
2013-03-20 11:46:00,39.9,18.0,29.90,West,263,14.0,-999.0,42,-99.99,,,0.00,weatherlink.com 1.10,2013-03-20 15:46:00,
2013-03-20 11:56:00,40.3,18.4,29.89,NW,306,13.0,16.0,41,0.00,,,0.00,Wunderground v.1.15,2013-03-20 15:56:00,
2013-03-20 12:05:00,41.0,20.2,29.88,WNW,292,12.0,19.0,43,0.00,,,0.00,Wunderground v.1.15,2013-03-20 16:05:00,
2013-03-20 12:10:00,41.4,20.5,29.89,West,263,12.0,19.0,43,0.00,,,0.00,Wunderground v.1.15,2013-03-20 16:10:00,
2013-03-20 12:16:00,40.8,19.0,29.88,WSW,253,10.0,-999.0,42,-99.99,,,0.00,weatherlink.com 1.10,2013-03-20 16:16:00,
2013-03-20 12:31:00,41.1,19.2,29.87,WNW,286,14.0,14.0,41,0.00,,,0.00,Wunderground v.1.15,2013-03-20 16:31:00,
2013-03-20 12:45:00,42.2,19.6,29.87,West,263,12.0,15.0,40,0.00,,,0.00,Wunderground v.1.15,2013-03-20 16:45:00,
2013-03-20 12:50:00,42.2,19.6,29.86,NW,307,12.0,15.0,40,0.00,,,0.00,Wunderground v.1.15,2013-03-20 16:50:00,
2013-03-20 13:01:00,42.2,20.0,29.87,SW,236,18.0,-999.0,41,-99.99,,,0.00,weatherlink.com 1.10,2013-03-20 17:01:00,
2013-03-20 13:11:00,42.6,18.7,29.86,West,274,14.0,14.0,38,0.00,,,0.00,Wunderground v.1.15,2013-03-20 17:11:00,
2013-03-20 13:17:00,42.5,18.0,29.86,WNW,302,16.0,-999.0,38,-99.99,,,0.00,weatherlink.com 1.10,2013-03-20 17:17:00,
2013-03-20 13:26:00,42.6,18.1,29.85,WNW,294,14.0,19.0,37,0.00,,,0.00,Wunderground v.1.15,2013-03-20 17:26:00,
2013-03-20 13:31:00,43.4,20.0,29.85,West,266,8.0,-999.0,39,-99.99,,,0.00,weatherlink.com 1.10,2013-03-20 17:31:00,
2013-03-20 13:46:00,43.9,20.0,29.85,WSW,242,11.0,-999.0,38,-99.99,,,0.00,weatherlink.com 1.10,2013-03-20 17:46:00,
2013-03-20 13:56:00,44.1,18.2,29.84,NW,304,12.0,13.0,35,0.00,,,0.00,Wunderground v.1.15,2013-03-20 17:56:00,
2013-03-20 14:02:00,44.1,17.0,29.83,West,277,16.0,-999.0,34,-99.99,,,0.00,weatherlink.com 1.10,2013-03-20 18:02:00,
2013-03-20 14:10:00,43.5,17.6,29.84,WSW,253,11.0,11.0,35,0.00,,,0.00,Wunderground v.1.15,2013-03-20 18:10:00,
2013-03-20 14:16:00,43.3,16.0,29.83,West,271,9.0,-999.0,33,-99.99,,,0.00,weatherlink.com 1.10,2013-03-20 18:16:00,
2013-03-20 14:30:00,44.6,21.1,29.82,WNW,287,11.0,15.0,39,0.00,,,0.00,Wunderground v.1.15,2013-03-20 18:30:00,
2013-03-20 14:45:00,44.6,18.6,29.81,WSW,252,12.0,17.0,35,0.00,,,0.00,Wunderground v.1.15,2013-03-20 18:45:00,
2013-03-20 14:50:00,44.8,16.7,29.81,WSW,245,13.0,17.0,32,0.00,,,0.00,Wunderground v.1.15,2013-03-20 18:50:00,
2013-03-20 14:56:00,44.9,17.5,29.81,WSW,248,13.0,13.0,33,0.00,,,0.00,Wunderground v.1.15,2013-03-20 18:56:00,
2013-03-20 15:01:00,44.6,17.0,29.80,WSW,256,10.0,-999.0,33,-99.99,,,0.00,weatherlink.com 1.10,2013-03-20 19:01:00,
2013-03-20 15:17:00,44.7,16.0,29.80,West,261,16.0,-999.0,31,-99.99,,,0.00,weatherlink.com 1.10,2013-03-20 19:17:00,
2013-03-20 15:31:00,45.0,17.0,29.79,WSW,238,10.0,-999.0,32,-99.99,,,0.00,weatherlink.com 1.10,2013-03-20 19:31:00,
2013-03-20 15:40:00,45.8,15.3,29.79,WSW,240,12.0,15.0,29,0.00,,,0.00,Wunderground v.1.15,2013-03-20 19:40:00,
2013-03-20 15:46:00,45.3,16.0,29.79,West,263,17.0,-999.0,31,-99.99,,,0.00,weatherlink.com 1.10,2013-03-20 19:46:00,
2013-03-20 15:55:00,45.7,16.0,29.79,West,263,14.0,15.0,30,0.00,,,0.00,Wunderground v.1.15,2013-03-20 19:55:00,
2013-03-20 16:01:00,45.8,17.6,29.78,WNW,289,15.0,15.0,32,0.00,,,0.00,Wunderground v.1.15,2013-03-20 20:01:00,
2013-03-20 16:10:00,45.4,15.7,29.78,WSW,248,11.0,15.0,30,0.00,,,0.00,Wunderground v.1.15,2013-03-20 20:10:00,
2013-03-20 16:16:00,45.4,17.2,29.77,NW,305,10.0,13.0,32,0.00,,,0.00,Wunderground v.1.15,2013-03-20 20:16:00,
2013-03-20 16:25:00,45.4,15.7,29.77,West,276,10.0,16.0,30,0.00,,,0.00,Wunderground v.1.15,2013-03-20 20:25:00,
2013-03-20 16:31:00,45.6,16.0,29.77,NW,305,6.0,-999.0,30,-99.99,,,0.00,weatherlink.com 1.10,2013-03-20 20:31:00,
2013-03-20 16:40:00,46.2,16.4,29.77,WNW,298,9.0,10.0,30,0.00,,,0.00,Wunderground v.1.15,2013-03-20 20:40:00,
2013-03-20 16:45:00,46.5,17.4,29.77,WSW,248,9.0,10.0,31,0.00,,,0.00,Wunderground v.1.15,2013-03-20 20:45:00,
2013-03-20 17:00:00,46.3,16.5,29.76,WSW,240,9.0,9.0,30,0.00,,,0.00,Wunderground v.1.15,2013-03-20 21:00:00,
2013-03-20 17:11:00,45.9,15.4,29.76,WNW,284,9.0,15.0,29,0.00,,,0.00,Wunderground v.1.15,2013-03-20 21:11:00,
2013-03-20 17:16:00,45.9,15.0,29.76,West,267,9.0,-999.0,29,-99.99,,,0.00,weatherlink.com 1.10,2013-03-20 21:16:00,
2013-03-20 17:30:00,46.2,16.4,29.75,WNW,286,10.0,13.0,30,0.00,,,0.00,Wunderground v.1.15,2013-03-20 21:30:00,
2013-03-20 17:46:00,45.9,16.0,29.75,West,263,8.0,-999.0,30,-99.99,,,0.00,weatherlink.com 1.10,2013-03-20 21:46:00,
2013-03-20 17:56:00,46.1,16.3,29.75,West,262,9.0,12.0,30,0.00,,,0.00,Wunderground v.1.15,2013-03-20 21:56:00,
2013-03-20 18:01:00,45.9,17.0,29.75,NW,312,8.0,-999.0,31,-99.99,,,0.00,weatherlink.com 1.10,2013-03-20 22:01:00,
2013-03-20 18:16:00,45.3,18.0,29.75,WNW,292,4.0,-999.0,33,-99.99,,,0.00,weatherlink.com 1.10,2013-03-20 22:16:00,
2013-03-20 18:26:00,45.1,18.4,29.74,West,276,4.0,8.0,34,0.00,,,0.00,Wunderground v.1.15,2013-03-20 22:26:00,
2013-03-20 18:32:00,45.1,17.0,29.74,NW,308,6.0,-999.0,33,-99.99,,,0.00,weatherlink.com 1.10,2013-03-20 22:32:00,
2013-03-20 18:41:00,45.0,18.3,29.74,West,275,4.0,5.0,34,0.00,,,0.00,Wunderground v.1.15,2013-03-20 22:41:00,
2013-03-20 18:46:00,44.8,19.0,29.74,WNW,297,0.0,-999.0,35,-99.99,,,0.00,weatherlink.com 1.10,2013-03-20 22:46:00,
2013-03-20 19:01:00,44.5,19.0,29.74,WNW,297,0.0,-999.0,36,-99.99,,,0.00,weatherlink.com 1.10,2013-03-20 23:01:00,
2013-03-20 19:11:00,44.5,17.8,29.75,West,259,1.0,5.0,34,0.00,,,0.00,Wunderground v.1.15,2013-03-20 23:11:00,
2013-03-20 19:16:00,44.8,18.0,29.75,SW,217,14.0,-999.0,34,-99.99,,,0.00,weatherlink.com 1.10,2013-03-20 23:16:00,
2013-03-20 19:25:00,44.7,19.3,29.75,West,269,10.0,12.0,36,0.00,,,0.00,Wunderground v.1.15,2013-03-20 23:25:00,
2013-03-20 19:31:00,44.7,19.0,29.75,West,259,9.0,-999.0,36,-99.99,,,0.00,weatherlink.com 1.10,2013-03-20 23:31:00,
2013-03-20 19:40:00,45.1,17.7,29.75,West,273,8.0,8.0,33,0.00,,,0.00,Wunderground v.1.15,2013-03-20 23:40:00,
2013-03-20 19:46:00,45.0,18.3,29.75,SW,230,6.0,8.0,34,0.00,,,0.00,Wunderground v.1.15,2013-03-20 23:46:00,
2013-03-20 19:55:00,45.0,18.3,29.74,WSW,242,7.0,7.0,34,0.00,,,0.00,Wunderground v.1.15,2013-03-20 23:55:00,
2013-03-20 20:02:00,45.2,17.0,29.74,WSW,252,5.0,-999.0,33,-99.99,,,0.00,weatherlink.com 1.10,2013-03-21 00:02:00,
2013-03-20 20:11:00,45.1,19.0,29.75,SSW,211,6.0,7.0,35,0.00,,,0.00,Wunderground v.1.15,2013-03-21 00:11:00,
2013-03-20 20:16:00,44.8,19.0,29.75,SW,215,5.0,-999.0,36,-99.99,,,0.00,weatherlink.com 1.10,2013-03-21 00:16:00,
2013-03-20 20:25:00,44.9,18.9,29.75,WSW,237,8.0,8.0,35,0.00,,,0.00,Wunderground v.1.15,2013-03-21 00:25:00,
2013-03-20 20:31:00,44.9,19.0,29.75,SW,232,3.0,-999.0,35,-99.99,,,0.00,weatherlink.com 1.10,2013-03-21 00:31:00,
2013-03-20 20:40:00,44.6,19.3,29.75,NW,308,3.0,3.0,36,0.00,,,0.00,Wunderground v.1.15,2013-03-21 00:40:00,
2013-03-20 20:46:00,44.3,19.0,29.76,NW,323,3.0,3.0,36,0.00,,,0.00,Wunderground v.1.15,2013-03-21 00:46:00,
2013-03-20 20:55:00,43.7,19.1,29.76,NW,323,1.0,4.0,37,0.00,,,0.00,Wunderground v.1.15,2013-03-21 00:55:00,
2013-03-20 21:01:00,43.6,19.0,29.75,NNE,33,1.0,1.0,37,0.00,,,0.00,Wunderground v.1.15,2013-03-21 01:01:00,
2013-03-20 21:11:00,43.2,18.6,29.76,NNE,33,1.0,1.0,37,0.00,,,0.00,Wunderground v.1.15,2013-03-21 01:11:00,
2013-03-20 21:16:00,43.0,18.0,29.75,NNE,33,0.0,-999.0,37,-99.99,,,0.00,weatherlink.com 1.10,2013-03-21 01:16:00,
2013-03-20 21:25:00,42.8,19.5,29.75,NNW,341,1.0,3.0,39,0.00,,,0.00,Wunderground v.1.15,2013-03-21 01:25:00,
2013-03-20 21:30:00,42.5,19.8,29.75,NNW,340,1.0,3.0,40,0.00,,,0.00,Wunderground v.1.15,2013-03-21 01:30:00,
2013-03-20 21:45:00,41.9,19.9,29.76,NNW,335,3.0,10.0,41,0.00,,,0.00,Wunderground v.1.15,2013-03-21 01:45:00,
2013-03-20 21:51:00,41.8,19.8,29.76,North,355,5.0,10.0,41,0.00,,,0.00,Wunderground v.1.15,2013-03-21 01:51:00,
2013-03-20 22:00:00,41.2,19.2,29.77,NNW,331,4.0,4.0,41,0.00,,,0.00,Wunderground v.1.15,2013-03-21 02:00:00,
2013-03-20 22:06:00,41.0,19.6,29.76,North,11,4.0,4.0,42,0.00,,,0.00,Wunderground v.1.15,2013-03-21 02:06:00,
2013-03-20 22:16:00,40.4,20.0,29.77,NNW,342,5.0,-999.0,44,-99.99,,,0.00,weatherlink.com 1.10,2013-03-21 02:16:00,
2013-03-20 22:30:00,39.7,20.6,29.77,NNW,335,6.0,7.0,46,0.00,,,0.00,Wunderground v.1.15,2013-03-21 02:30:00,
2013-03-20 22:45:00,39.3,20.7,29.78,NNE,12,3.0,3.0,47,0.00,,,0.00,Wunderground v.1.15,2013-03-21 02:45:00,
2013-03-20 22:56:00,39.1,21.0,29.78,NNE,19,5.0,5.0,48,0.00,,,0.00,Wunderground v.1.15,2013-03-21 02:56:00,
2013-03-20 23:01:00,38.8,21.0,29.77,North,360,4.0,-999.0,49,-99.99,,,0.00,weatherlink.com 1.10,2013-03-21 03:01:00,
2013-03-20 23:10:00,38.4,20.9,29.77,North,355,4.0,5.0,49,0.00,,,0.00,Wunderground v.1.15,2013-03-21 03:10:00,
2013-03-20 23:15:00,38.1,21.1,29.76,North,349,4.0,5.0,50,0.00,,,0.00,Wunderground v.1.15,2013-03-21 03:15:00,
2013-03-20 23:21:00,37.9,20.9,29.77,NW,321,5.0,7.0,50,0.00,,,0.00,Wunderground v.1.15,2013-03-21 03:21:00,
2013-03-20 23:30:00,37.9,21.4,29.78,NNW,338,5.0,7.0,51,0.00,,,0.00,Wunderground v.1.15,2013-03-21 03:30:00,
2013-03-20 23:36:00,37.9,21.4,29.77,North,360,5.0,5.0,51,0.00,,,0.00,Wunderground v.1.15,2013-03-21 03:36:00,
2013-03-20 23:46:00,37.8,21.0,29.77,NNE,28,5.0,-999.0,52,-99.99,,,0.00,weatherlink.com 1.10,2013-03-21 03:46:00,
2013-03-20 23:56:00,37.4,21.8,29.76,NE,36,4.0,5.0,53,0.00,,,0.00,Wunderground v.1.15,2013-03-21 03:56:00,